Wind_Speed
56 54 53 53 54 54 52 51 49 49 47 45 44 42 40 38 37 36 35 34 32 31 31 30 30 30 29 28 32 34 32 30 29 28 28 30 33 35 37 40 43 49 48 45 44 44 44 44 43 42 41 39 38 36 35 33 31 28 27 26 26 26 26 26 26 24 22 22 22 22 22 21 20 19 18 17 15 13 12 10 9 8 8 7 8 7 8 7
57 54 53 52 53 53 51 50 49 49 47 45 44 42 40 39 37 36 35 35 33 32 31 30 30 29 29 28 31 34 33 30 30 29 30 31 31 33 37 40 44 49 48 45 45 44 44 44 44 43 42 40 38 37 35 33 30 28 28 27 27 27 26 26 25 23 22 22 22 22 22 20 20 19 18 17 16 14 13 12 11 10 8 8 8 7 7 7
57 55 53 52 52 52 51 50 49 48 47 45 43 41 40 38 37 36 36 35 34 33 32 31 30 29 29 29 31 34 33 31 30 32 34 33 32 34 37 41 47 50 49 47 46 45 45 45 45 45 43 41 39 37 35 32 30 29 28 28 28 27 26 25 24 23 22 22 22 22 21 20 20 19 18 16 15 14 13 13 11 10 8 8 7 7 7 7
57 56 53 51 52 52 51 50 49 48 47 45 43 41 39 38 37 37 36 36 35 33 32 31 30 29 29 30 32 34 34 32 30 34 36 34 34 36 38 43 49 51 50 48 47 46 46 46 46 45 44 42 40 38 35 33 31 30 29 29 28 28 26 25 24 23 23 22 22 22 21 20 20 19 18 17 16 14 13 12 11 10 8 8 8 7 7 7
58 56 53 51 51 52 51 50 48 48 47 45 43 40 39 38 38 37 36 36 35 34 33 32 30 30 31 31 32 34 34 34 33 34 36 35 37 39 40 45 50 52 51 49 48 47 47 47 46 46 45 43 42 39 36 33 31 30 30 30 29 28 27 26 25 24 23 23 22 22 21 20 19 19 19 18 16 15 13 12 11 10 9 9 9 8 7 7
59 56 54 51 51 51 50 49 48 47 46 45 42 40 39 38 37 37 36 35 35 34 33 32 31 31 31 31 33 33 33 34 36 36 35 36 38 42 44 48 52 53 52 49 48 48 48 48 47 47 45 44 42 39 35 33 31 30 30 30 29 29 28 26 26 25 23 23 22 21 21 20 20 19 18 17 16 16 15 14 12 11 9 9 9 8 8 7
59 57 54 51 50 50 50 48 47 46 45 44 42 40 38 38 37 37 36 35 35 35 33 32 32 32 31 32 33 33 33 35 37 37 36 37 39 44 48 52 54 54 53 51 49 49 48 48 47 46 45 44 41 38 35 33 32 31 30 30 30 29 28 27 26 25 24 23 22 22 21 20 20 19 18 17 17 17 16 14 13 11 10 10 9 8 8 8
59 57 54 51 50 49 49 47 46 45 44 43 42 39 38 38 37 36 36 35 36 36 33 33 32 32 32 32 34 33 33 35 37 38 39 40 41 45 50 54 55 54 53 51 50 50 49 48 47 46 45 43 41 38 36 34 33 32 31 30 30 29 27 27 26 25 24 24 23 22 21 20 20 19 18 18 17 16 15 14 12 11 11 10 9 8 8 8
58 56 54 51 50 49 48 46 45 44 43 42 41 39 38 37 37 36 35 35 36 36 34 33 32 32 32 33 34 33 33 34 36 39 42 44 43 46 52 56 56 54 53 52 51 51 50 49 47 46 44 43 40 38 36 35 34 32 32 31 30 29 28 27 26 25 25 24 23 22 22 21 20 19 19 17 16 15 15 14 13 12 11 11 10 9 8 8
58 55 53 51 50 48 47 46 45 43 42 42 41 39 37 36 36 35 35 35 36 37 35 33 32 32 32 33 33 33 33 35 38 39 41 46 46 47 54 58 56 54 53 53 52 51 50 49 48 47 45 44 41 39 38 37 35 34 33 32 32 30 29 29 27 26 25 24 23 23 22 21 20 19 18 17 16 16 16 15 14 13 12 11 10 9 9 9
57 55 53 51 50 48 47 46 44 43 42 41 40 39 37 36 36 35 34 35 36 37 36 34 33 33 33 33 33 32 33 35 38 38 39 46 49 49 55 59 57 55 54 53 53 52 51 50 49 47 46 45 43 41 40 38 37 35 35 34 33 32 31 30 29 28 26 24 24 23 22 21 19 18 18 18 17 16 15 15 14 13 12 12 11 11 10 10
57 55 54 51 49 47 46 45 44 43 41 40 39 38 37 36 35 35 34 35 37 38 37 35 34 34 34 33 33 33 34 36 38 38 38 46 52 52 56 60 58 56 54 54 53 53 52 51 50 48 47 45 44 42 41 40 38 37 37 36 34 33 32 31 30 28 26 25 24 23 22 21 20 19 18 18 17 16 16 15 15 14 13 12 12 12 12 11
57 55 54 51 48 48 46 45 43 42 41 39 38 38 37 36 35 34 34 35 37 38 38 37 35 35 34 33 33 34 36 36 37 38 39 46 53 55 58 61 59 57 55 54 53 53 52 52 51 49 48 46 45 44 43 42 40 39 38 37 35 34 33 31 30 28 27 26 24 23 22 21 21 20 19 18 18 17 17 17 16 16 15 14 14 14 13 12
56 55 53 50 48 47 45 44 42 41 40 39 38 38 37 36 35 34 34 35 37 38 39 38 36 35 35 34 33 35 36 36 37 39 40 46 54 57 61 62 60 58 56 55 54 53 52 52 52 51 49 48 46 45 44 43 42 40 39 38 37 35 33 30 29 28 27 26 25 23 23 23 21 20 19 19 19 18 18 18 17 17 16 16 16 15 15 14
54 54 53 51 49 47 45 43 42 41 40 39 38 37 37 36 35 34 35 36 37 39 39 38 36 35 35 35 34 35 36 36 37 40 42 48 56 59 62 63 61 58 57 56 56 54 53 52 52 51 50 48 47 46 45 44 43 42 41 40 38 35 33 31 30 29 27 26 25 24 23 23 21 20 21 20 19 19 19 18 18 17 17 17 17 17 16 15
53 53 52 51 49 46 44 43 42 41 40 40 39 38 37 36 36 35 35 36 37 39 39 38 37 35 35 35 34 35 36 36 38 41 43 50 58 61 64 65 62 59 58 57 57 55 54 53 53 52 51 49 48 47 46 45 44 44 42 40 37 34 33 31 30 29 27 26 26 24 24 24 22 21 22 21 20 20 19 18 18 19 19 18 18 18 17 16
52 52 51 50 49 46 44 43 42 41 40 40 39 38 38 37 37 36 36 36 37 39 40 39 37 36 36 35 34 35 35 36 38 42 46 53 60 63 65 66 63 60 59 58 57 56 56 54 53 53 52 50 49 48 48 48 47 45 43 41 37 35 33 31 29 28 27 26 26 25 24 24 23 22 23 21 20 20 19 19 19 19 19 18 18 18 18 18
52 52 51 50 49 46 45 44 43 42 41 41 40 39 39 38 38 37 36 37 38 40 41 40 38 37 36 34 34 35 36 37 40 44 49 55 62 65 66 66 64 61 60 59 58 57 57 55 54 54 53 52 51 50 50 48 45 42 40 37 35 33 31 30 28 28 28 27 27 26 25 24 24 24 24 22 21 21 20 19 19 19 19 19 19 19 20 20
52 51 51 50 49 47 45 45 44 43 42 42 41 40 40 39 39 38 37 37 38 40 41 39 37 36 34 33 34 36 37 38 42 46 52 58 63 67 67 66 64 62 61 60 59 58 58 56 56 56 55 53 51 49 47 44 41 39 38 35 34 33 32 31 31 31 31 30 29 27 25 26 25 24 24 24 22 22 20 19 19 20 20 19 20 21 21 21
53 51 51 50 49 48 47 46 45 44 43 42 41 41 40 40 39 39 38 37 38 39 39 38 37 35 34 33 34 36 36 38 43 49 55 61 65 67 67 65 64 63 63 61 59 58 58 57 56 54 52 51 49 47 46 44 42 41 40 39 37 37 35 34 34 33 32 31 29 27 26 27 25 24 25 25 23 21 20 20 20 20 21 21 22 22 22 22
52 52 51 50 49 48 47 47 46 44 44 43 42 41 39 38 37 36 37 38 40 40 40 39 38 37 35 34 34 33 34 38 45 53 59 63 67 67 67 66 64 63 63 62 61 59 58 57 55 52 50 49 48 47 46 44 42 41 41 40 40 39 38 36 35 34 32 31 29 28 27 27 26 26 27 26 23 21 21 21 21 21 22 22 23 23 22 23
52 52 51 50 49 49 48 48 47 45 44 43 42 41 40 39 38 36 36 38 39 40 41 41 40 38 36 35 34 33 33 39 47 55 61 64 67 67 66 66 64 62 62 62 61 60 60 58 54 52 51 50 49 48 47 45 43 42 42 42 41 40 38 37 35 34 32 31 29 29 28 28 29 29 27 26 24 23 23 23 23 23 23 22 23 24 24 25
53 52 51 51 50 49 49 48 47 45 44 43 42 42 42 42 42 40 40 39 39 40 41 42 41 40 38 35 35 33 34 42 51 57 62 64 66 66 65 64 62 60 60 61 60 59 60 57 53 52 52 51 51 49 48 46 45 44 43 42 41 40 38 36 35 33 32 31 30 30 29 29 31 30 27 26 25 25 26 24 24 24 23 23 24 25 26 26
54 53 52 51 51 50 49 48 47 45 44 44 44 44 44 44 44 43 43 42 42 42 42 43 41 40 39 37 36 35 37 46 53 58 63 64 64 64 62 60 60 58 58 59 58 57 57 54 52 52 52 52 52 51 49 48 46 45 43 42 40 39 38 36 35 35 34 34 33 32 32 30 31 30 28 28 28 27 27 26 26 25 25 26 26 26 27 27
55 54 53 52 51 51 50 48 47 46 46 46 46 46 46 45 45 44 43 43 44 44 44 45 43 41 41 38 37 37 41 50 55 59 62 62 61 61 59 57 58 57 55 55 55 56 55 52 51 52 52 52 52 51 50 48 46 45 43 42 40 39 39 37 37 37 36 36 34 34 33 31 31 31 31 30 29 28 29 28 27 27 27 28 28 28 28 28
57 55 54 53 52 51 50 49 47 47 47 48 47 47 47 46 46 45 45 45 46 46 46 46 45 44 42 40 40 40 44 52 57 58 61 61 61 60 57 56 57 57 54 53 54 55 55 53 52 52 52 52 53 52 50 48 47 45 44 42 41 40 39 38 38 37 37 36 35 35 34 32 31 32 32 31 30 29 30 30 29 29 29 29 29 29 30 30
58 57 56 54 53 52 50 48 48 48 49 49 48 48 48 47 47 47 46 47 48 48 47 48 47 46 44 43 42 41 45 52 57 58 60 60 60 59 57 56 56 55 53 52 54 56 55 53 53 54 54 54 54 52 50 49 48 46 44 43 42 41 40 39 39 39 38 37 37 36 36 34 32 32 32 32 31 31 31 30 30 31 31 31 31 31 31 31
58 58 57 55 54 53 51 49 48 49 49 49 49 49 48 48 48 47 47 49 50 49 48 48 48 47 46 46 45 43 46 51 56 59 60 60 60 58 57 56 55 52 51 51 53 54 53 52 52 53 53 54 53 52 50 49 48 47 45 44 43 42 41 41 40 40 39 39 38 37 36 36 33 31 32 33 32 32 31 31 32 33 33 33 32 32 32 32
59 58 58 57 56 54 53 51 50 49 49 49 49 49 48 48 48 48 48 50 50 49 48 48 49 49 48 47 45 44 47 52 56 59 58 59 59 58 56 55 54 52 51 50 50 51 50 49 50 51 52 53 52 51 50 50 49 48 47 46 45 44 43 42 42 41 40 40 39 37 37 38 35 31 32 33 32 31 31 32 33 34 34 35 34 34 33 33
60 59 59 58 56 55 54 53 52 52 51 51 50 49 49 49 49 49 51 51 50 49 49 49 49 49 48 47 46 44 47 54 56 57 57 57 58 57 55 54 52 51 51 51 51 50 49 48 49 51 52 52 52 52 51 51 51 50 49 47 46 46 45 44 44 43 43 42 41 40 38 39 38 32 30 31 31 31 32 33 34 34 35 36 36 36 36 36
60 59 59 57 56 55 54 54 54 53 53 53 52 51 51 51 50 52 53 51 50 49 49 49 49 48 47 46 45 44 48 54 56 57 58 57 57 58 56 55 54 53 53 53 53 52 50 49 50 51 53 53 53 52 52 52 52 51 50 49 47 47 47 46 45 45 45 43 41 40 39 39 39 32 29 30 30 31 33 33 34 35 35 36 36 37 37 38
61 60 59 58 57 56 55 54 53 53 53 53 53 53 53 53 54 55 52 51 51 50 48 47 47 47 45 44 45 44 47 54 57 58 58 57 57 58 57 56 55 56 56 56 56 54 51 50 51 52 53 54 54 53 54 54 53 53 52 51 50 49 49 48 47 46 45 44 42 40 40 40 36 31 30 31 30 31 32 33 34 35 35 36 37 37 38 38
61 62 61 60 59 58 58 57 55 54 54 53 54 54 54 56 57 55 52 52 52 49 47 47 46 46 45 46 48 46 47 54 56 57 59 58 56 55 55 54 53 54 55 55 55 54 53 52 53 53 54 54 54 54 55 55 54 54 53 52 51 51 50 48 47 47 45 43 42 41 40 39 34 32 34 33 31 31 32 33 34 35 36 36 37 38 38 38
61 63 63 62 61 61 60 59 57 56 55 55 55 55 57 59 57 54 53 53 51 49 48 48 47 47 48 48 49 47 48 54 57 57 58 59 57 56 55 54 53 52 53 52 52 52 51 52 52 52 53 54 53 53 53 52 51 51 52 51 51 50 49 48 47 46 44 44 44 43 43 40 35 34 35 34 33 33 33 34 34 35 35 36 37 37 38 38
62 63 64 64 63 63 61 60 59 58 57 57 56 58 60 59 55 55 55 51 49 50 50 49 47 48 50 50 50 50 49 52 56 58 60 60 58 57 55 55 55 54 54 53 53 52 50 50 49 49 50 51 51 51 52 51 52 52 52 52 51 51 50 49 48 47 46 46 46 46 44 40 35 36 37 35 35 35 35 34 34 35 35 35 36 37 38 39
63 64 65 66 65 64 63 62 61 60 59 59 59 61 61 57 54 54 54 49 47 49 50 50 49 49 51 51 51 52 52 51 52 56 60 61 59 57 55 54 53 53 54 53 53 52 51 50 49 48 49 50 50 50 50 51 52 52 52 52 50 50 49 49 48 48 48 48 47 46 43 39 37 38 38 37 37 36 36 34 33 34 34 34 35 36 38 39
62 65 64 66 66 65 64 63 62 62 61 61 62 62 58 55 55 54 52 48 46 47 48 50 49 48 50 52 52 53 53 52 51 54 58 61 61 59 56 53 52 51 51 50 50 49 48 48 48 47 48 49 49 50 50 50 51 51 51 50 49 49 49 48 48 48 48 49 48 46 43 40 39 39 38 37 38 37 35 33 33 32 33 34 35 36 37 38
59 64 64 65 66 66 65 64 64 63 62 62 62 60 57 57 56 53 51 49 47 47 48 48 48 46 46 50 52 52 52 53 53 52 55 61 63 61 58 56 53 51 50 48 48 48 47 47 47 47 48 48 48 49 50 50 50 50 50 49 49 49 49 48 49 49 49 49 49 47 45 42 41 39 37 38 39 37 34 33 32 32 32 33 33 34 35 36
60 63 65 67 66 66 66 65 64 64 64 63 61 59 59 58 56 52 51 50 48 47 47 47 45 43 43 46 50 51 51 53 53 51 52 57 62 62 59 57 55 52 50 48 48 48 48 47 48 48 48 48 49 50 51 50 50 49 49 49 49 49 49 48 49 49 49 49 49 48 47 45 41 39 38 39 39 38 36 35 33 32 32 32 32 32 33 34
66 64 65 68 67 66 66 66 65 64 64 61 60 60 60 59 56 54 53 52 50 48 47 46 44 41 40 42 47 49 49 51 52 51 50 52 58 61 60 58 57 54 51 49 48 48 48 48 49 49 49 49 50 50 50 49 48 48 48 48 48 48 49 49 49 48 48 49 49 50 50 47 42 40 40 40 39 39 39 37 35 33 32 32 33 33 33 34
68 66 64 67 68 67 67 67 67 65 63 61 61 62 61 59 57 56 55 54 52 49 47 46 44 41 38 39 44 48 48 49 51 51 50 50 54 59 60 58 57 55 52 51 50 49 49 49 49 50 49 49 49 48 48 48 48 48 47 47 47 46 46 47 47 48 47 49 50 50 52 48 42 42 42 41 41 41 40 38 35 33 33 34 34 34 34 35
58 63 65 66 67 69 69 68 67 66 64 64 64 63 61 59 58 56 54 53 52 51 49 48 46 42 39 38 41 46 48 49 50 51 51 50 51 54 57 57 56 54 52 51 50 48 48 48 49 50 50 49 49 48 48 48 47 47 47 47 46 47 47 47 48 48 47 49 49 49 51 49 44 43 44 43 43 43 41 39 36 34 34 34 35 34 35 35
48 54 62 67 69 71 71 70 69 67 66 65 64 64 63 61 59 56 52 51 52 51 50 49 47 43 40 38 39 44 48 49 49 50 50 50 50 52 55 57 56 53 51 50 50 48 47 48 49 49 50 50 50 50 49 48 48 48 47 46 46 47 47 48 49 49 48 50 48 48 51 50 45 43 44 44 45 44 42 40 37 37 36 35 35 35 35 36
46 47 54 62 69 73 73 72 70 69 67 67 66 65 63 61 59 56 53 51 51 50 50 49 47 43 40 38 38 42 48 50 50 50 50 51 52 52 54 56 57 55 52 50 49 48 49 49 50 50 51 52 52 52 52 50 49 48 47 47 48 47 48 48 49 49 50 50 48 49 51 48 43 43 44 46 45 43 42 42 40 39 39 37 37 36 36 36
49 47 48 53 62 72 74 72 70 69 69 68 68 66 64 61 59 56 53 52 51 51 50 49 47 44 41 39 39 42 47 51 51 51 51 52 53 53 53 55 58 58 55 52 50 49 50 51 51 52 53 54 54 53 52 49 47 48 48 48 48 47 47 48 48 49 50 48 48 49 48 44 42 42 45 46 46 44 42 42 42 41 40 39 38 37 37 36
50 51 50 48 53 62 70 72 72 71 70 68 68 67 65 63 60 57 54 53 53 52 51 50 47 45 43 42 42 43 46 51 53 53 52 52 53 54 54 55 57 59 58 56 53 52 52 54 54 54 54 54 52 50 49 47 47 47 46 45 45 46 46 46 48 48 46 46 48 47 43 42 42 44 45 47 47 45 43 42 42 42 41 41 40 39 38 38
50 51 52 49 47 52 62 71 74 72 70 69 68 67 65 63 61 60 57 55 54 53 52 51 49 47 46 44 43 43 43 48 53 54 53 53 54 55 56 55 56 59 61 60 58 57 56 57 57 57 56 55 53 51 51 51 50 49 47 46 45 45 45 47 47 46 43 45 48 44 41 43 44 44 44 45 45 46 45 43 43 43 43 42 42 41 41 41
52 51 52 51 47 46 52 62 71 71 70 70 69 67 65 63 61 60 59 57 55 54 54 53 51 48 46 44 43 41 41 45 52 54 54 54 55 56 57 57 57 59 61 63 62 61 60 61 61 60 59 57 55 55 55 54 53 52 50 50 49 47 47 48 47 46 45 48 48 44 42 46 46 43 43 44 45 46 46 47 46 44 43 43 43 44 45 44
54 51 51 52 50 45 44 53 65 71 70 70 70 68 66 64 62 60 59 58 58 56 55 54 51 48 45 44 44 42 41 43 47 51 53 53 54 56 57 57 58 59 60 63 64 64 64 64 64 63 62 60 59 59 58 56 55 54 53 53 52 52 51 50 49 48 48 50 49 46 47 49 47 43 42 44 46 46 48 49 48 45 43 43 44 46 47 46
55 53 50 52 52 48 44 48 60 69 70 70 70 68 67 65 63 61 60 59 59 58 57 55 51 48 45 44 44 42 40 38 41 47 51 51 51 54 55 57 58 57 58 61 63 65 66 66 66 65 65 63 62 61 60 60 59 57 57 56 55 54 53 53 51 50 51 51 48 47 50 49 44 40 40 42 44 46 48 48 47 45 44 45 47 48 48 48
55 54 51 51 53 52 48 47 53 64 70 70 68 67 66 64 63 62 62 61 60 60 58 56 53 50 48 46 43 40 38 36 39 46 50 49 49 50 51 53 54 55 56 57 59 62 63 65 66 66 67 67 64 62 62 63 62 62 61 59 57 56 54 54 52 51 51 50 47 48 50 47 41 39 40 41 44 46 46 46 47 47 47 49 51 51 50 50
54 53 52 52 53 53 53 51 51 57 64 67 67 66 66 66 64 64 64 62 60 60 58 56 54 52 51 49 43 39 39 39 41 45 49 51 51 51 51 52 52 52 52 53 54 56 57 60 62 64 66 66 66 65 64 65 66 67 64 60 57 56 54 53 53 52 51 51 50 51 48 43 41 42 42 42 44 45 46 48 49 50 50 52 54 53 52 52
Wind_Direction
213 212 211 210 209 209 209 209 209 209 209 209 210 209 210 210 211 212 212 213 213 212 214 217 221 224 226 227 229 227 224 221 216 213 213 216 218 218 217 216 203 190 187 188 189 190 190 188 188 188 188 188 186 186 186 185 184 182 180 178 181 184 183 184 185 183 183 189 193 192 190 188 183 182 184 186 187 187 187 192 193 191 184 169 161 154 147 148
213 212 211 211 209 210 210 210 210 209 210 211 211 211 211 211 212 213 213 214 214 213 214 216 219 222 224 225 227 229 227 222 218 217 219 220 220 220 217 209 197 188 186 189 191 191 191 189 188 188 188 187 185 186 186 184 183 181 179 179 182 185 184 184 184 181 182 190 193 192 190 187 186 184 185 187 188 188 189 193 193 191 188 176 166 159 154 153
213 213 211 210 210 210 211 211 211 210 211 211 212 212 212 212 212 214 214 214 215 214 213 215 217 220 222 222 225 228 228 223 219 220 221 221 222 222 216 202 192 188 187 189 191 191 191 190 189 188 188 186 184 186 185 183 182 180 180 182 184 185 183 184 183 180 183 190 193 191 188 187 187 185 185 188 191 191 193 197 197 193 189 181 172 164 160 158
213 213 211 210 210 210 211 211 211 211 211 212 212 212 212 212 212 214 215 215 216 215 213 214 215 217 220 221 224 227 228 223 219 222 221 220 223 223 215 200 191 188 188 190 192 192 192 191 190 189 188 185 184 186 184 182 182 181 182 185 186 184 183 184 182 181 185 190 193 191 187 188 190 187 185 187 191 194 195 198 198 194 188 181 175 169 164 161
213 213 212 210 210 210 211 212 212 212 212 212 212 211 211 211 212 213 215 216 217 217 214 214 214 216 219 220 223 226 227 223 219 222 220 219 222 222 212 198 191 189 188 190 191 192 192 192 192 190 188 186 185 185 184 182 182 183 185 187 187 185 184 184 182 181 186 189 192 191 188 189 192 191 189 189 189 192 196 197 195 193 191 184 178 173 168 166
212 213 212 210 210 210 211 212 213 213 212 212 212 211 211 211 212 212 215 216 218 218 215 214 214 215 218 219 222 224 225 222 220 221 219 220 223 220 208 195 191 190 189 190 192 192 193 193 194 192 189 187 186 185 183 182 183 185 188 189 188 187 186 185 184 182 185 189 191 192 190 190 193 195 194 191 189 191 195 195 192 190 191 190 184 179 173 168
212 212 212 210 210 210 211 212 213 213 213 213 212 211 211 211 212 212 214 216 218 219 217 215 215 216 217 218 221 222 222 222 221 222 220 221 224 218 203 192 190 190 189 191 192 193 194 195 195 193 189 187 187 185 183 183 185 188 191 192 191 190 187 187 187 183 184 188 190 192 192 192 194 196 197 194 193 194 196 197 195 192 190 190 188 184 177 171
211 212 212 210 210 210 211 212 212 214 213 213 213 211 211 211 212 213 214 216 219 219 218 216 215 216 216 218 220 219 219 220 221 222 220 221 223 215 200 189 190 191 191 192 192 193 194 196 197 195 191 188 187 185 184 185 188 190 192 194 195 193 189 189 190 185 185 188 191 192 192 193 195 196 197 198 198 198 199 200 199 196 191 189 190 187 181 174
210 211 212 210 210 210 210 211 212 213 213 213 213 212 212 212 213 213 213 216 219 220 219 217 215 217 217 218 219 217 217 217 218 221 220 219 221 213 197 188 190 192 193 193 192 193 194 196 197 196 193 190 188 186 186 188 190 192 193 195 197 195 192 192 192 188 188 189 191 192 192 194 196 196 198 200 199 199 201 202 201 199 195 191 190 188 185 180
210 210 211 211 210 209 210 211 212 213 213 214 214 213 212 212 213 214 214 216 219 220 221 218 215 216 217 218 218 217 217 216 217 219 220 219 218 211 197 188 191 193 194 193 192 193 194 196 198 197 195 191 189 187 188 190 192 194 195 198 197 195 194 194 193 192 191 192 193 193 193 195 197 196 199 202 202 202 204 203 203 201 198 193 190 188 188 185
209 210 211 211 210 209 209 211 212 212 213 214 214 214 213 212 213 214 214 216 219 221 222 219 215 214 216 218 217 216 216 216 216 217 220 220 214 208 197 189 191 194 195 194 193 194 195 197 198 197 196 193 190 188 190 192 193 195 197 200 199 196 195 194 194 193 193 194 195 195 195 196 198 198 200 204 206 207 207 206 206 203 200 197 191 190 190 190
208 209 211 211 209 208 209 210 211 212 213 213 213 214 214 213 213 214 215 216 219 222 223 221 216 213 214 216 216 215 215 215 215 214 218 220 212 205 198 191 191 194 196 195 194 195 196 197 198 198 198 195 192 191 191 193 194 196 198 201 199 197 197 196 195 194 193 196 197 197 197 196 199 200 202 205 208 209 208 207 205 203 201 198 194 193 193 195
208 209 211 210 209 209 209 210 211 212 212 212 213 213 215 214 213 214 216 217 219 222 223 223 218 214 213 212 213 215 216 214 214 212 215 219 212 203 196 191 191 194 196 197 196 196 197 197 198 198 198 196 194 193 193 195 195 197 200 201 200 199 199 197 196 195 194 197 199 200 198 198 201 201 203 206 209 209 208 207 205 203 202 199 197 197 197 200
208 210 211 210 210 209 209 209 210 211 212 212 212 213 215 215 215 216 217 218 220 222 224 224 220 215 212 211 212 216 217 214 213 211 212 216 212 202 195 191 192 195 196 197 197 197 198 198 198 199 198 197 196 195 195 196 197 199 201 203 202 201 200 199 197 196 196 198 201 201 199 202 203 200 204 208 209 211 210 209 207 205 204 202 200 199 202 205
209 210 210 209 210 210 208 209 209 210 211 212 212 213 214 215 216 216 217 219 221 223 224 225 223 217 214 212 212 216 217 214 213 211 211 213 210 202 195 191 192 195 197 197 197 198 199 199 199 199 199 198 197 196 196 197 198 200 203 204 203 201 200 199 199 198 198 200 202 202 201 206 205 201 207 209 210 212 212 211 209 208 207 204 203 203 206 209
209 209 209 209 209 208 208 208 209 210 211 212 212 213 214 215 216 217 218 219 221 225 226 226 224 220 216 213 211 216 218 214 213 211 210 212 208 201 196 193 193 195 197 197 198 199 200 200 200 200 199 199 199 198 198 199 199 201 203 205 204 202 202 201 200 199 200 201 204 203 203 209 208 204 211 212 211 215 215 214 212 211 210 207 206 207 209 212
206 207 207 209 208 208 207 207 209 210 210 212 212 213 213 214 216 217 218 219 221 225 227 227 225 222 218 214 212 216 219 215 214 212 210 210 207 200 196 194 193 195 196 197 198 199 200 200 200 200 200 199 200 199 200 201 201 201 203 204 203 203 203 203 202 201 202 203 205 205 205 211 210 207 213 214 213 216 216 216 217 216 215 213 213 212 213 216
203 205 206 207 207 207 206 206 207 208 209 210 211 213 214 215 216 217 218 219 221 224 227 228 226 224 220 216 213 216 218 215 213 211 209 208 205 200 195 194 194 195 196 197 198 199 200 201 201 201 201 200 200 200 201 203 202 203 205 205 205 205 205 205 204 204 205 205 207 207 205 212 214 210 215 217 215 217 216 216 218 218 218 218 219 218 219 221
201 203 204 206 207 206 206 206 206 207 208 210 212 214 214 216 217 218 218 219 222 225 227 228 227 226 223 219 216 217 217 214 212 211 208 206 203 199 195 194 194 195 196 197 198 200 201 202 202 201 200 201 201 201 202 203 202 203 205 206 206 208 208 206 206 206 207 207 208 208 205 212 216 214 218 220 217 218 219 218 217 218 219 221 222 224 225 226
200 201 204 205 206 206 205 205 205 206 208 210 212 215 217 220 221 221 222 222 223 225 228 229 229 227 223 222 220 219 218 214 211 210 207 204 201 198 195 194 194 196 196 197 199 201 202 203 203 202 202 203 203 203 203 203 202 202 203 204 204 207 208 207 208 208 209 209 209 209 207 213 218 217 221 224 222 220 222 222 220 219 219 222 224 227 229 231
200 201 203 204 205 205 205 205 205 206 208 209 211 215 219 222 226 228 228 226 224 224 225 227 227 225 222 222 222 221 220 215 211 208 205 203 200 197 195 195 195 196 196 197 199 201 203 203 202 202 204 206 205 205 205 204 204 203 204 204 205 207 208 209 210 210 211 210 210 211 210 213 219 220 221 226 226 225 225 224 224 223 222 224 227 231 232 235
200 200 202 203 203 204 204 204 205 206 208 209 212 214 217 219 220 223 225 225 225 225 225 225 223 222 221 221 222 221 219 215 210 207 204 202 200 197 196 196 195 196 197 198 199 201 202 201 202 204 206 206 206 205 206 205 204 204 204 205 206 208 210 211 212 213 214 213 212 214 213 213 220 223 222 225 227 228 229 227 227 228 228 229 231 233 235 237
199 200 201 202 202 203 204 204 205 207 208 210 212 214 216 216 216 217 217 219 222 224 225 225 221 218 218 219 221 220 216 213 208 204 203 201 199 198 196 196 196 197 198 199 200 202 202 201 202 205 206 207 206 206 206 206 205 205 205 206 207 209 211 213 215 217 218 218 217 218 218 216 222 226 225 226 226 227 231 231 230 232 232 233 234 235 237 239
198 199 200 201 202 202 203 204 205 207 208 209 211 213 215 216 216 216 216 217 218 220 222 223 221 219 217 217 220 219 214 210 205 202 202 200 198 198 197 197 198 198 199 200 201 203 204 204 205 207 207 207 207 207 207 207 207 206 206 207 209 211 213 214 216 218 219 220 220 222 222 220 223 228 228 228 227 226 231 232 232 235 235 236 238 238 240 242
197 198 199 200 201 202 203 204 206 206 207 209 211 213 214 216 216 216 216 217 218 218 218 219 218 218 218 218 220 220 214 208 203 200 200 199 198 198 197 198 199 199 200 202 204 205 206 207 208 209 209 209 208 208 208 209 208 208 208 209 211 213 214 215 217 218 220 221 221 224 225 221 222 228 229 231 230 227 231 233 233 235 237 238 240 241 243 245
197 197 199 200 201 202 204 205 206 206 207 210 211 213 215 215 215 216 216 216 217 217 217 217 217 217 217 218 220 220 214 207 202 200 199 199 198 198 197 199 199 199 201 204 206 207 207 206 208 210 210 210 210 209 210 210 210 209 210 211 214 215 216 217 219 220 221 222 223 225 227 223 221 227 230 232 234 231 232 234 234 236 239 240 241 242 245 247
196 197 198 200 201 202 204 206 206 206 208 210 211 213 215 215 216 216 217 217 216 216 217 217 217 217 217 217 220 221 216 210 205 202 200 200 199 198 197 198 199 200 203 206 207 207 207 207 208 210 210 211 210 210 211 212 212 211 211 214 216 217 219 220 221 222 222 223 225 227 229 228 223 226 232 234 236 236 235 235 235 238 242 243 243 245 247 249
197 198 198 200 201 202 203 205 206 207 209 211 211 213 214 214 215 216 216 218 217 215 216 217 217 218 218 218 220 221 217 212 207 204 202 201 200 199 198 198 199 201 205 208 208 207 208 208 209 210 211 212 211 211 213 214 214 213 213 216 218 219 221 222 223 224 225 226 227 228 231 233 226 224 231 236 237 239 239 238 237 239 244 246 247 247 249 252
198 199 199 200 201 202 202 204 205 207 210 211 212 213 214 213 213 214 216 218 218 215 216 218 218 219 219 219 220 222 218 211 207 205 204 203 202 200 199 199 200 202 204 207 208 209 210 210 210 211 212 212 212 214 215 215 216 216 217 218 219 221 222 224 225 226 227 227 228 229 231 234 230 224 229 236 239 242 243 243 241 241 244 246 247 248 249 252
199 199 200 200 200 201 203 204 205 206 209 211 212 213 214 214 214 215 216 218 218 217 216 218 220 221 221 220 220 222 219 212 207 205 204 204 203 201 200 200 201 203 204 205 207 209 210 211 211 212 212 212 213 215 217 217 217 218 219 220 222 223 224 226 226 228 230 228 228 231 233 236 235 228 229 237 242 244 245 245 246 245 246 246 247 249 250 251
200 200 201 201 202 203 204 206 207 207 209 210 211 213 213 214 215 217 218 219 220 219 217 218 221 223 224 223 222 223 219 213 209 207 205 205 205 203 202 202 202 203 204 205 207 208 209 210 211 212 212 213 214 216 218 218 219 220 221 222 223 225 226 228 229 229 231 229 230 233 236 239 238 232 233 238 242 246 248 248 250 250 250 249 249 250 251 252
201 200 201 202 203 204 205 207 209 209 211 210 211 212 213 215 216 217 218 219 221 221 219 220 223 225 226 225 224 224 221 214 211 210 207 206 206 205 204 204 204 205 204 204 206 208 209 210 211 211 212 213 214 216 218 219 219 221 222 223 225 226 227 229 230 231 231 231 233 236 238 241 240 238 242 243 243 247 251 253 254 254 254 253 253 252 252 253
202 200 201 202 204 205 205 207 208 210 211 211 212 213 214 217 218 218 218 219 221 221 220 222 224 225 226 225 223 222 220 216 213 212 210 207 207 207 205 205 205 207 207 207 208 209 209 210 210 211 213 213 215 217 218 219 221 223 224 225 227 228 229 230 231 233 233 234 236 239 241 242 239 240 246 249 249 250 252 254 255 256 256 256 256 256 257 257
204 202 202 203 204 206 206 207 208 209 210 211 213 213 216 219 219 218 219 221 222 221 220 222 224 224 225 225 225 224 222 218 215 213 212 210 208 207 206 205 205 207 208 209 211 212 213 213 212 212 214 215 216 218 219 220 223 225 227 228 230 231 233 234 236 237 237 238 240 241 242 241 239 242 247 251 254 255 254 255 255 255 256 256 257 258 259 260
205 202 203 205 205 206 207 208 209 210 210 211 213 215 219 220 218 217 219 220 222 222 221 222 224 225 225 225 224 224 224 223 220 215 213 212 211 209 208 207 206 206 207 209 211 212 214 216 216 217 217 218 219 220 221 221 223 224 226 228 229 231 233 234 236 237 238 240 241 242 242 241 240 244 248 252 255 257 257 257 257 257 256 257 258 258 259 260
208 204 204 206 206 207 207 208 209 210 211 212 213 217 219 219 219 219 219 219 222 224 223 223 224 225 225 224 224 223 224 226 225 220 215 213 212 211 209 209 208 208 208 210 211 212 214 215 216 218 220 221 222 223 223 225 226 226 227 228 230 232 234 236 238 240 241 242 243 243 244 243 242 244 248 253 256 258 259 260 259 259 258 258 258 258 259 259
211 208 208 208 206 207 208 209 210 210 212 213 216 218 219 220 220 220 220 221 222 224 225 225 226 227 227 226 225 224 225 226 227 225 219 214 213 212 210 209 209 209 209 211 213 215 216 217 217 219 221 222 223 225 226 227 228 229 231 231 233 235 236 238 240 242 243 244 244 244 244 243 243 245 249 253 257 259 260 261 261 261 260 259 259 259 259 259
211 211 210 210 208 207 209 211 211 211 212 214 217 219 220 222 223 220 219 221 223 225 226 227 228 229 230 230 227 225 226 226 228 228 223 218 215 213 211 210 209 209 210 212 214 215 217 219 220 220 223 224 225 227 228 229 229 231 232 232 234 236 237 239 241 243 244 246 246 246 245 244 244 247 249 253 256 259 261 261 262 262 260 259 259 258 258 258
211 213 210 210 209 208 210 212 212 212 213 215 217 219 220 223 223 221 221 222 223 225 227 228 229 230 232 232 230 228 227 227 228 230 228 223 217 213 212 212 211 209 210 212 214 215 216 219 221 220 223 225 226 227 228 229 231 232 233 234 235 237 238 240 241 243 245 247 247 247 245 244 244 246 248 251 256 260 261 261 261 260 260 260 259 257 257 258
210 213 210 209 210 210 211 213 213 214 216 217 219 220 222 222 222 221 221 222 223 224 226 228 228 230 232 233 231 229 230 230 229 229 230 227 222 216 212 211 211 210 210 212 215 217 218 219 221 221 222 224 226 227 228 230 232 234 235 236 237 239 240 241 242 243 244 246 247 247 246 244 243 245 246 250 255 258 260 260 259 259 259 260 260 259 259 259
212 213 210 209 210 211 213 214 214 216 218 219 220 222 223 223 223 222 221 221 223 224 226 228 229 230 232 234 232 230 230 231 231 230 229 227 225 220 215 212 211 210 211 213 215 217 220 221 223 224 223 225 226 227 229 230 232 233 234 236 238 239 240 242 243 243 244 246 246 247 246 243 242 244 246 249 253 255 257 258 259 260 260 260 261 261 261 262
214 215 213 211 210 212 215 216 217 218 219 220 221 222 223 224 224 225 224 223 223 224 225 228 230 229 229 232 233 231 230 231 231 231 230 228 227 223 218 216 214 211 212 215 216 219 223 225 227 228 227 227 228 228 229 231 232 233 234 234 235 236 237 239 241 240 241 243 245 247 246 241 239 243 246 249 252 254 256 257 259 260 260 261 262 263 263 263
215 215 216 214 211 212 215 217 217 218 219 220 222 223 224 224 225 226 226 225 225 225 226 228 230 229 228 230 232 230 230 231 232 232 231 229 228 226 222 219 217 217 217 219 219 221 225 228 229 231 231 231 231 230 231 232 233 233 233 233 235 236 237 239 241 240 241 242 243 246 246 242 240 245 248 250 252 253 255 257 258 260 260 261 263 264 263 263
217 217 218 217 213 212 214 217 218 218 219 221 222 223 224 225 225 226 227 226 225 225 226 228 230 230 230 231 233 231 229 230 231 231 231 229 227 227 225 221 219 220 221 222 222 224 228 230 231 231 233 233 233 232 232 232 233 234 234 234 235 236 237 239 241 241 242 243 244 247 248 245 244 247 249 251 253 254 257 258 259 260 260 261 262 262 261 261
220 219 221 222 219 214 214 217 219 220 220 221 222 223 224 224 224 225 226 226 225 225 227 229 230 232 233 234 237 236 231 229 230 229 229 229 228 227 228 225 222 221 222 224 226 229 233 235 234 235 235 234 233 233 232 233 235 236 236 237 239 240 241 242 244 245 245 246 247 249 250 248 247 249 250 252 255 255 256 258 259 260 260 261 261 260 260 260
221 222 222 223 223 220 217 216 218 219 221 222 224 224 224 224 224 224 225 226 226 225 227 228 229 233 235 236 240 241 236 231 230 229 229 229 229 229 229 228 226 223 222 224 227 231 235 236 236 237 238 236 235 235 235 236 239 240 240 242 244 246 247 247 248 248 249 250 250 251 253 250 248 249 250 252 255 256 255 256 257 257 257 258 259 260 260 261
215 222 223 222 223 222 220 217 217 219 220 222 224 224 225 225 225 225 225 226 226 226 227 228 229 232 235 237 239 242 240 234 231 231 231 230 230 230 230 230 228 226 225 225 226 230 234 235 235 236 237 235 234 235 235 235 237 238 239 240 242 244 246 248 249 249 250 252 250 248 250 249 245 246 249 250 253 255 255 254 254 255 256 257 259 261 262 262
206 216 223 223 221 222 221 219 218 219 220 220 222 223 224 225 226 227 226 227 227 227 228 230 231 233 236 239 239 240 240 235 231 230 231 231 230 231 231 232 231 229 228 228 228 230 233 234 233 235 235 233 234 236 236 236 237 237 237 237 237 239 241 243 244 244 245 247 245 242 243 244 241 241 246 248 249 252 254 256 256 256 257 259 260 261 261 261
201 207 217 222 221 219 221 221 219 219 220 220 221 222 223 225 226 227 228 229 230 230 230 231 233 235 238 240 238 237 237 235 232 230 230 232 232 233 233 234 234 234 232 232 232 232 234 234 234 235 235 233 235 236 236 237 238 238 238 238 238 239 241 241 242 242 243 245 244 241 242 243 241 241 245 248 251 253 255 258 260 261 261 261 261 261 261 262
199 201 209 219 221 218 217 220 219 219 219 220 221 223 224 225 226 226 227 228 230 232 233 233 234 236 238 240 238 236 236 236 233 230 230 232 234 234 235 236 237 238 237 237 236 235 236 236 235 237 237 236 236 237 237 238 238 239 239 239 239 240 241 242 242 242 244 246 246 246 246 245 244 246 248 251 254 256 258 261 264 266 266 265 263 262 263 264
197 198 202 211 219 219 217 217 219 219 220 221 222 224 225 226 227 227 227 228 229 231 233 233 234 235 237 238 237 236 236 236 232 228 229 232 234 234 236 237 237 238 239 240 241 240 240 239 238 239 240 239 238 240 240 239 240 240 239 238 239 240 241 243 244 245 248 249 249 249 249 247 247 249 251 253 255 257 260 263 266 266 266 266 265 265 265 266
196 197 199 204 212 218 219 218 218 219 220 221 223 225 226 227 228 228 228 227 229 231 232 233 234 235 236 237 236 235 235 233 231 228 228 230 231 232 233 234 234 235 237 239 241 242 243 243 242 242 243 242 241 242 242 242 242 242 239 239 241 242 243 245 245 246 248 250 250 250 250 251 250 250 250 251 253 256 258 260 261 263 264 265 267 268 269 269
Height
5689 5693 5698 5703 5707 5711 5715 5720 5724 5728 5731 5735 5738 5741 5744 5747 5749 5752 5754 5756 5759 5762 5764 5767 5770 5773 5776 5779 5781 5784 5786 5789 5792 5795 5798 5799 5802 5805 5809 5811 5813 5816 5822 5827 5830 5833 5836 5838 5841 5845 5849 5852 5855 5857 5859 5862 5864 5866 5868 5870 5871 5873 5874 5875 5877 5878 5880 5882 5883 5885 5886 5887 5887 5889 5890 5891 5892 5893 5894 5895 5896 5897 5898 5898 5898 5899 5899 5899
5685 5690 5694 5699 5704 5708 5712 5716 5720 5724 5728 5732 5735 5738 5741 5744 5747 5749 5751 5754 5756 5759 5762 5765 5768 5771 5774 5776 5779 5781 5784 5787 5790 5794 5795 5797 5800 5804 5806 5809 5812 5816 5820 5825 5829 5832 5835 5837 5840 5843 5847 5851 5854 5856 5858 5861 5863 5865 5867 5869 5870 5871 5873 5875 5876 5878 5879 5881 5883 5884 5885 5886 5887 5888 5889 5890 5891 5892 5893 5894 5895 5896 5897 5897 5898 5898 5899 5899
5682 5686 5691 5696 5701 5705 5709 5713 5717 5721 5725 5728 5732 5735 5738 5741 5744 5747 5749 5752 5754 5756 5760 5763 5766 5768 5771 5774 5776 5779 5782 5784 5788 5791 5793 5796 5799 5802 5805 5807 5810 5815 5819 5824 5827 5830 5833 5836 5839 5842 5845 5849 5852 5855 5857 5860 5862 5864 5866 5868 5869 5870 5872 5874 5876 5877 5878 5880 5881 5883 5884 5885 5886 5887 5888 5890 5891 5892 5893 5894 5895 5896 5896 5897 5897 5898 5899 5899
5678 5682 5688 5692 5697 5701 5705 5709 5713 5717 5722 5725 5729 5732 5735 5738 5741 5744 5746 5749 5752 5754 5757 5760 5763 5766 5768 5771 5774 5776 5779 5782 5786 5788 5790 5794 5797 5800 5803 5805 5809 5813 5817 5822 5825 5829 5832 5835 5838 5840 5844 5847 5850 5853 5856 5859 5861 5863 5865 5866 5868 5870 5871 5873 5875 5876 5877 5879 5880 5881 5882 5884 5885 5886 5887 5889 5890 5891 5893 5894 5895 5895 5895 5896 5897 5898 5898 5899
5674 5679 5684 5689 5694 5698 5702 5706 5710 5714 5718 5722 5726 5729 5732 5735 5738 5741 5744 5747 5750 5752 5755 5758 5760 5763 5765 5768 5771 5774 5777 5780 5783 5785 5788 5793 5795 5798 5800 5803 5807 5811 5815 5820 5824 5827 5831 5834 5836 5839 5842 5846 5848 5851 5854 5857 5860 5862 5863 5865 5867 5869 5870 5872 5874 5875 5876 5878 5879 5880 5881 5883 5884 5885 5886 5888 5889 5891 5892 5893 5894 5894 5895 5895 5896 5897 5898 5899
5670 5676 5681 5686 5690 5695 5699 5703 5707 5711 5715 5719 5723 5726 5729 5733 5736 5739 5742 5745 5747 5749 5752 5755 5758 5760 5762 5765 5768 5771 5775 5778 5780 5782 5787 5790 5792 5795 5797 5801 5805 5809 5813 5818 5822 5826 5829 5833 5835 5838 5841 5845 5847 5850 5854 5856 5858 5860 5862 5864 5866 5868 5869 5871 5873 5874 5875 5877 5878 5880 5881 5882 5883 5885 5886 5887 5889 5890 5891 5892 5893 5893 5894 5895 5896 5896 5897 5898
5667 5672 5677 5682 5687 5691 5696 5700 5704 5708 5712 5716 5720 5723 5727 5730 5733 5737 5740 5742 5745 5747 5749 5752 5755 5757 5760 5763 5766 5769 5773 5775 5778 5781 5785 5788 5789 5792 5794 5798 5803 5807 5811 5816 5820 5824 5828 5831 5834 5837 5840 5843 5847 5849 5852 5855 5856 5858 5860 5863 5865 5866 5868 5870 5871 5873 5874 5876 5877 5879 5880 5881 5882 5884 5885 5887 5888 5889 5890 5891 5892 5893 5893 5894 5895 5896 5897 5897
5664 5669 5674 5679 5683 5688 5692 5697 5701 5705 5709 5713 5717 5720 5724 5727 5731 5734 5737 5740 5742 5744 5747 5749 5752 5754 5757 5760 5763 5767 5770 5773 5775 5778 5782 5784 5786 5789 5791 5796 5801 5805 5809 5813 5818 5822 5826 5830 5834 5836 5839 5842 5845 5848 5851 5853 5855 5856 5859 5861 5863 5865 5866 5868 5870 5872 5873 5875 5876 5877 5879 5880 5882 5883 5884 5886 5887 5888 5889 5890 5891 5892 5893 5894 5894 5895 5896 5897
5661 5666 5671 5676 5680 5685 5689 5694 5698 5702 5706 5710 5713 5717 5721 5725 5728 5732 5735 5738 5740 5742 5744 5747 5750 5752 5755 5758 5761 5765 5767 5769 5772 5775 5778 5781 5783 5786 5789 5794 5798 5803 5807 5811 5815 5819 5824 5828 5832 5835 5838 5841 5844 5846 5849 5851 5853 5855 5857 5859 5861 5863 5865 5867 5868 5870 5871 5873 5875 5876 5878 5879 5880 5882 5883 5885 5886 5887 5888 5889 5890 5891 5892 5893 5894 5894 5895 5897
5658 5663 5668 5673 5677 5682 5686 5690 5694 5699 5703 5707 5711 5715 5719 5722 5726 5729 5733 5736 5738 5740 5742 5745 5747 5750 5753 5755 5758 5762 5764 5767 5770 5772 5775 5778 5781 5784 5787 5791 5796 5801 5805 5809 5813 5817 5822 5826 5829 5833 5836 5838 5841 5844 5846 5849 5851 5853 5856 5858 5859 5861 5863 5865 5867 5868 5870 5872 5873 5875 5876 5878 5879 5881 5882 5884 5885 5886 5887 5888 5889 5890 5891 5892 5893 5894 5895 5896
5654 5660 5665 5669 5674 5679 5683 5687 5691 5695 5700 5704 5708 5712 5716 5720 5723 5727 5730 5733 5735 5737 5740 5742 5745 5748 5750 5752 5756 5758 5760 5764 5767 5769 5773 5775 5778 5781 5785 5789 5794 5799 5803 5807 5811 5815 5819 5823 5827 5830 5833 5836 5838 5841 5844 5846 5849 5851 5853 5855 5857 5859 5861 5863 5865 5867 5869 5870 5872 5873 5875 5877 5879 5880 5881 5883 5884 5885 5886 5887 5888 5889 5890 5891 5892 5893 5894 5895
5651 5657 5661 5666 5671 5676 5680 5684 5689 5693 5697 5701 5705 5709 5713 5717 5720 5724 5727 5730 5733 5735 5737 5740 5742 5745 5747 5751 5752 5754 5757 5761 5764 5766 5770 5772 5774 5778 5782 5787 5791 5796 5801 5805 5808 5811 5815 5819 5824 5828 5831 5834 5837 5838 5841 5844 5846 5849 5851 5853 5856 5858 5859 5861 5863 5865 5867 5869 5871 5872 5874 5876 5877 5879 5880 5881 5883 5884 5885 5886 5887 5888 5889 5890 5891 5892 5893 5894
5648 5653 5658 5664 5668 5673 5677 5682 5686 5690 5694 5698 5702 5706 5710 5714 5718 5721 5724 5727 5730 5732 5735 5737 5739 5742 5746 5748 5749 5751 5755 5758 5761 5764 5767 5770 5772 5775 5779 5784 5789 5794 5798 5802 5806 5809 5812 5816 5820 5824 5828 5832 5834 5836 5839 5842 5844 5846 5848 5851 5853 5855 5857 5860 5862 5864 5865 5867 5869 5871 5873 5874 5876 5877 5879 5880 5881 5883 5884 5885 5886 5887 5888 5889 5890 5891 5892 5893
5644 5650 5656 5661 5665 5670 5675 5679 5683 5687 5691 5695 5699 5703 5707 5711 5714 5718 5721 5724 5727 5730 5732 5734 5737 5740 5743 5745 5746 5749 5752 5755 5759 5762 5764 5768 5770 5773 5777 5781 5786 5791 5795 5799 5803 5807 5810 5814 5817 5821 5826 5829 5831 5834 5837 5839 5842 5844 5846 5848 5851 5853 5856 5859 5861 5862 5864 5866 5868 5870 5872 5873 5874 5876 5878 5879 5880 5881 5882 5884 5885 5886 5887 5887 5888 5890 5891 5892
5641 5647 5653 5658 5663 5668 5672 5677 5681 5685 5689 5693 5697 5701 5704 5708 5712 5715 5718 5721 5724 5727 5729 5732 5734 5737 5740 5742 5744 5746 5749 5753 5757 5759 5762 5765 5767 5770 5774 5778 5783 5788 5792 5796 5800 5804 5807 5811 5815 5819 5823 5826 5829 5832 5834 5837 5839 5841 5843 5846 5849 5852 5855 5857 5859 5860 5862 5864 5866 5868 5870 5871 5872 5874 5875 5877 5878 5880 5881 5882 5884 5885 5885 5886 5887 5889 5890 5891
5638 5644 5650 5655 5660 5665 5670 5674 5678 5682 5686 5690 5694 5698 5702 5705 5709 5712 5715 5718 5721 5724 5727 5729 5732 5734 5736 5739 5742 5744 5747 5752 5754 5756 5759 5762 5764 5767 5771 5775 5780 5785 5789 5793 5797 5801 5804 5808 5813 5816 5820 5824 5827 5830 5832 5834 5836 5839 5841 5844 5848 5851 5853 5855 5857 5859 5861 5863 5864 5867 5868 5869 5871 5873 5873 5875 5877 5878 5879 5881 5882 5883 5884 5885 5886 5887 5889 5890
5634 5641 5646 5652 5657 5662 5667 5671 5675 5679 5683 5687 5691 5695 5698 5702 5705 5709 5712 5715 5718 5721 5724 5726 5729 5731 5733 5737 5741 5743 5745 5749 5751 5754 5756 5758 5761 5764 5768 5773 5777 5782 5786 5790 5794 5798 5802 5806 5810 5814 5817 5821 5824 5827 5829 5830 5833 5836 5839 5843 5846 5849 5852 5854 5856 5858 5859 5861 5863 5865 5866 5867 5869 5871 5872 5873 5875 5876 5878 5879 5880 5882 5883 5884 5885 5886 5887 5888
5631 5637 5643 5648 5654 5659 5664 5668 5672 5676 5680 5684 5688 5691 5695 5699 5702 5706 5709 5712 5715 5718 5720 5723 5726 5728 5731 5735 5739 5740 5742 5745 5748 5750 5752 5755 5758 5761 5765 5770 5774 5778 5783 5787 5791 5795 5799 5803 5807 5811 5814 5818 5821 5824 5826 5829 5834 5837 5841 5844 5847 5849 5851 5853 5855 5856 5857 5859 5860 5862 5865 5866 5867 5869 5870 5872 5873 5874 5876 5877 5879 5880 5881 5883 5884 5885 5886 5887
5628 5634 5640 5645 5651 5655 5660 5664 5668 5673 5677 5681 5684 5688 5692 5695 5699 5703 5706 5710 5713 5715 5717 5721 5725 5727 5730 5733 5735 5735 5737 5741 5744 5747 5749 5752 5755 5758 5762 5766 5771 5775 5779 5784 5788 5792 5796 5800 5803 5807 5811 5816 5820 5823 5827 5831 5835 5838 5841 5844 5847 5848 5850 5851 5852 5853 5854 5856 5858 5860 5863 5864 5865 5867 5868 5870 5871 5872 5874 5876 5877 5878 5880 5881 5882 5883 5884 5885
5625 5631 5637 5642 5647 5652 5657 5661 5665 5670 5674 5678 5682 5685 5689 5692 5696 5700 5704 5707 5710 5713 5716 5720 5722 5725 5727 5728 5730 5731 5734 5738 5741 5744 5746 5749 5752 5755 5759 5763 5768 5772 5777 5782 5786 5790 5794 5797 5802 5808 5813 5816 5819 5822 5825 5828 5831 5834 5836 5839 5842 5844 5845 5847 5848 5849 5851 5853 5856 5858 5860 5861 5863 5865 5866 5867 5869 5871 5872 5873 5875 5876 5878 5879 5880 5881 5882 5883
5623 5628 5634 5639 5644 5649 5653 5657 5662 5666 5671 5675 5679 5683 5687 5691 5695 5699 5702 5705 5707 5710 5713 5715 5717 5720 5723 5724 5726 5729 5732 5735 5738 5740 5743 5745 5749 5752 5756 5760 5765 5770 5774 5778 5782 5787 5791 5795 5802 5808 5812 5814 5817 5820 5822 5826 5828 5831 5833 5835 5838 5840 5842 5844 5845 5847 5849 5851 5854 5856 5858 5860 5861 5862 5863 5865 5867 5869 5870 5871 5873 5874 5875 5877 5878 5879 5880 5880
5620 5625 5631 5636 5641 5645 5649 5654 5659 5663 5667 5672 5677 5681 5685 5688 5692 5695 5698 5701 5704 5706 5709 5710 5713 5716 5719 5721 5723 5726 5729 5732 5735 5737 5739 5743 5746 5750 5754 5758 5763 5767 5772 5775 5779 5783 5787 5793 5800 5804 5806 5809 5813 5816 5819 5822 5825 5828 5830 5832 5835 5837 5840 5842 5844 5846 5848 5850 5852 5854 5856 5858 5858 5859 5861 5863 5865 5867 5868 5869 5870 5871 5873 5875 5876 5876 5877 5878
5617 5622 5628 5633 5637 5642 5646 5651 5655 5660 5665 5670 5674 5677 5681 5684 5687 5690 5692 5696 5699 5702 5705 5707 5709 5712 5715 5718 5720 5723 5726 5729 5732 5734 5737 5741 5744 5747 5752 5756 5761 5764 5768 5773 5778 5781 5786 5792 5796 5799 5802 5806 5809 5812 5815 5818 5821 5824 5827 5829 5832 5835 5838 5840 5842 5844 5846 5848 5850 5851 5853 5855 5855 5856 5859 5861 5863 5864 5865 5866 5868 5869 5871 5872 5873 5874 5874 5875
5614 5619 5625 5629 5634 5638 5643 5648 5652 5657 5662 5666 5669 5673 5677 5680 5683 5685 5688 5691 5694 5697 5700 5703 5707 5710 5712 5715 5718 5720 5723 5725 5728 5732 5735 5738 5742 5745 5750 5754 5757 5762 5766 5771 5775 5780 5785 5790 5793 5796 5799 5802 5805 5809 5812 5815 5818 5821 5824 5827 5830 5833 5835 5838 5839 5841 5842 5844 5846 5848 5849 5852 5853 5854 5857 5858 5860 5862 5862 5864 5865 5866 5868 5869 5869 5871 5872 5873
5611 5616 5621 5626 5630 5635 5640 5645 5649 5654 5658 5661 5665 5670 5673 5676 5679 5682 5684 5687 5690 5693 5696 5699 5703 5706 5709 5713 5716 5718 5720 5722 5725 5728 5732 5735 5739 5743 5747 5750 5754 5760 5764 5768 5772 5776 5781 5786 5790 5793 5796 5799 5802 5806 5809 5813 5816 5819 5822 5825 5827 5830 5832 5834 5836 5837 5839 5841 5843 5845 5846 5849 5851 5852 5854 5855 5857 5859 5860 5861 5863 5864 5865 5865 5867 5868 5869 5870
5607 5612 5617 5622 5627 5632 5636 5641 5646 5651 5654 5657 5661 5666 5669 5672 5675 5678 5681 5683 5685 5689 5692 5696 5699 5702 5706 5710 5712 5715 5717 5719 5722 5725 5729 5732 5735 5740 5744 5748 5753 5757 5761 5765 5768 5771 5776 5782 5786 5789 5792 5796 5799 5803 5806 5809 5812 5816 5819 5822 5824 5826 5829 5831 5833 5834 5836 5838 5841 5842 5843 5845 5848 5849 5850 5852 5854 5856 5857 5859 5861 5861 5862 5863 5864 5865 5865 5866
5603 5609 5613 5619 5624 5629 5634 5639 5643 5646 5650 5653 5658 5662 5665 5668 5671 5674 5677 5677 5680 5685 5689 5693 5696 5699 5703 5706 5709 5713 5715 5717 5721 5723 5726 5729 5733 5737 5740 5745 5750 5755 5758 5760 5763 5768 5774 5779 5782 5785 5788 5791 5795 5800 5803 5806 5809 5813 5816 5818 5821 5823 5825 5827 5829 5830 5832 5835 5837 5839 5840 5841 5844 5847 5848 5849 5851 5853 5854 5856 5858 5858 5859 5860 5861 5862 5862 5863
5600 5605 5610 5616 5621 5625 5631 5636 5639 5643 5646 5650 5655 5658 5660 5663 5666 5670 5671 5672 5676 5682 5686 5690 5693 5697 5700 5703 5706 5710 5713 5716 5720 5722 5724 5728 5731 5734 5738 5743 5747 5751 5755 5758 5763 5768 5772 5776 5779 5782 5785 5788 5793 5797 5800 5803 5806 5809 5812 5814 5817 5819 5821 5823 5825 5827 5829 5831 5833 5835 5837 5837 5840 5844 5846 5846 5848 5850 5852 5854 5855 5856 5856 5857 5858 5859 5860 5860
5597 5602 5607 5612 5616 5621 5626 5630 5634 5639 5642 5646 5651 5653 5655 5658 5661 5663 5664 5667 5674 5680 5684 5687 5691 5693 5697 5700 5704 5708 5711 5714 5717 5720 5723 5726 5728 5732 5736 5740 5743 5747 5751 5756 5761 5765 5769 5772 5776 5778 5782 5787 5791 5794 5796 5799 5802 5805 5808 5810 5813 5815 5817 5819 5821 5823 5824 5826 5829 5832 5834 5834 5836 5841 5843 5843 5845 5847 5849 5851 5852 5852 5853 5854 5855 5856 5857 5857
5594 5599 5603 5608 5613 5617 5621 5625 5629 5633 5637 5642 5646 5648 5651 5653 5656 5657 5659 5666 5673 5677 5681 5685 5688 5691 5694 5698 5703 5706 5710 5712 5714 5717 5720 5723 5726 5730 5733 5736 5739 5742 5747 5752 5756 5759 5764 5768 5772 5775 5779 5783 5787 5789 5792 5795 5797 5800 5803 5806 5809 5810 5813 5814 5816 5818 5819 5822 5825 5827 5830 5830 5831 5836 5840 5841 5843 5845 5846 5847 5847 5849 5850 5851 5852 5853 5853 5854
5590 5596 5601 5606 5610 5614 5618 5622 5626 5629 5632 5637 5640 5642 5645 5648 5650 5652 5658 5667 5671 5674 5678 5682 5686 5689 5693 5698 5701 5705 5708 5710 5712 5715 5717 5720 5723 5726 5729 5732 5735 5738 5743 5747 5751 5755 5760 5764 5767 5771 5775 5779 5782 5785 5787 5790 5793 5796 5799 5802 5805 5806 5807 5809 5811 5813 5814 5818 5821 5823 5826 5826 5828 5834 5838 5839 5840 5841 5842 5843 5844 5845 5846 5847 5848 5849 5850 5850
5586 5592 5598 5603 5606 5610 5614 5618 5623 5626 5629 5632 5634 5636 5640 5642 5643 5649 5659 5666 5667 5671 5678 5681 5684 5688 5692 5696 5699 5703 5706 5707 5710 5712 5715 5718 5720 5724 5727 5730 5733 5736 5740 5744 5748 5752 5756 5759 5763 5766 5770 5773 5776 5779 5781 5785 5788 5791 5794 5797 5799 5800 5801 5804 5806 5808 5810 5814 5817 5820 5822 5823 5827 5832 5833 5834 5837 5838 5838 5839 5840 5841 5842 5843 5844 5844 5845 5846
5582 5588 5593 5597 5601 5605 5609 5613 5618 5622 5625 5628 5629 5632 5635 5636 5640 5650 5658 5661 5663 5671 5677 5679 5682 5686 5689 5692 5694 5699 5702 5705 5708 5709 5712 5715 5717 5721 5724 5727 5731 5735 5739 5743 5746 5748 5751 5754 5757 5761 5765 5768 5771 5774 5777 5782 5786 5788 5790 5792 5794 5795 5797 5800 5802 5805 5808 5811 5814 5817 5818 5820 5826 5829 5828 5830 5833 5834 5835 5836 5836 5836 5837 5838 5839 5839 5840 5841
5578 5584 5588 5592 5595 5599 5604 5609 5613 5616 5620 5622 5624 5628 5629 5632 5642 5651 5654 5657 5662 5668 5672 5674 5678 5681 5683 5687 5691 5695 5698 5701 5704 5706 5709 5711 5713 5716 5719 5723 5727 5732 5737 5741 5743 5746 5749 5752 5756 5759 5762 5765 5769 5772 5776 5780 5783 5784 5787 5789 5791 5793 5796 5798 5800 5803 5806 5808 5809 5812 5813 5817 5823 5824 5824 5826 5828 5830 5831 5831 5832 5832 5832 5833 5834 5835 5836 5836
5573 5579 5583 5586 5590 5595 5600 5605 5608 5612 5614 5617 5620 5622 5624 5632 5642 5646 5649 5655 5660 5663 5667 5671 5673 5676 5678 5682 5686 5690 5693 5696 5699 5702 5704 5707 5710 5714 5718 5721 5725 5729 5733 5736 5739 5744 5747 5752 5756 5759 5762 5765 5767 5769 5772 5775 5776 5777 5780 5782 5785 5788 5791 5793 5795 5797 5800 5802 5803 5806 5809 5815 5820 5820 5820 5823 5824 5825 5826 5827 5828 5828 5828 5829 5830 5831 5831 5832
5569 5573 5577 5581 5586 5592 5596 5600 5603 5606 5609 5612 5614 5616 5623 5634 5640 5642 5647 5654 5657 5658 5662 5665 5667 5670 5673 5678 5682 5684 5688 5692 5695 5698 5700 5704 5708 5712 5716 5720 5723 5727 5730 5734 5737 5740 5744 5748 5753 5756 5758 5761 5763 5766 5768 5770 5771 5773 5776 5778 5782 5785 5786 5789 5791 5793 5795 5796 5799 5802 5807 5813 5816 5816 5817 5819 5820 5821 5821 5822 5823 5823 5824 5825 5826 5826 5827 5827
5564 5568 5572 5577 5583 5587 5591 5596 5599 5601 5604 5607 5610 5615 5626 5633 5635 5639 5645 5650 5652 5654 5657 5660 5663 5666 5670 5674 5678 5681 5685 5688 5690 5693 5697 5700 5703 5708 5713 5717 5721 5725 5729 5733 5736 5739 5743 5746 5749 5752 5754 5756 5759 5761 5763 5765 5768 5770 5773 5777 5780 5781 5782 5785 5786 5788 5790 5792 5795 5799 5804 5809 5811 5812 5815 5816 5816 5816 5817 5818 5818 5818 5819 5820 5821 5822 5822 5823
5560 5564 5568 5573 5579 5583 5587 5590 5593 5596 5600 5603 5608 5617 5624 5626 5629 5636 5641 5645 5647 5650 5653 5656 5660 5664 5668 5671 5675 5679 5681 5683 5685 5689 5693 5696 5699 5706 5711 5714 5718 5723 5726 5729 5732 5735 5739 5742 5745 5747 5749 5752 5754 5756 5758 5760 5763 5766 5770 5773 5775 5774 5778 5781 5781 5783 5786 5788 5791 5796 5800 5803 5807 5810 5813 5812 5811 5811 5812 5813 5814 5814 5814 5815 5816 5817 5817 5818
5555 5559 5563 5568 5574 5578 5581 5584 5588 5592 5595 5599 5607 5614 5618 5620 5627 5634 5638 5640 5642 5645 5648 5651 5656 5661 5664 5667 5672 5675 5676 5679 5682 5686 5690 5693 5697 5704 5709 5712 5716 5719 5722 5725 5727 5730 5734 5736 5739 5742 5744 5746 5748 5750 5753 5756 5760 5763 5765 5767 5769 5771 5774 5776 5777 5780 5783 5784 5787 5791 5794 5798 5804 5807 5809 5808 5807 5807 5808 5809 5810 5810 5810 5810 5811 5812 5813 5813
5550 5553 5558 5564 5569 5573 5576 5580 5583 5586 5590 5598 5606 5610 5612 5616 5622 5627 5631 5634 5637 5641 5644 5648 5652 5657 5660 5663 5667 5670 5673 5676 5679 5683 5686 5691 5696 5701 5705 5708 5711 5715 5718 5720 5722 5725 5728 5731 5733 5736 5738 5740 5742 5745 5749 5753 5756 5758 5761 5763 5766 5768 5770 5772 5773 5776 5778 5780 5782 5785 5787 5794 5801 5803 5803 5804 5803 5803 5803 5804 5805 5806 5806 5806 5807 5808 5808 5809
5545 5548 5553 5559 5564 5568 5571 5574 5577 5583 5591 5598 5601 5603 5607 5613 5618 5621 5625 5629 5633 5637 5641 5644 5648 5652 5656 5659 5662 5666 5669 5671 5675 5679 5682 5686 5691 5696 5702 5705 5708 5711 5713 5714 5717 5721 5723 5726 5729 5730 5733 5736 5739 5743 5746 5748 5750 5753 5756 5759 5762 5764 5766 5767 5768 5771 5775 5775 5776 5778 5780 5789 5797 5798 5798 5800 5800 5799 5799 5800 5802 5802 5802 5802 5802 5803 5804 5804
5542 5546 5551 5555 5560 5564 5567 5570 5576 5582 5588 5591 5594 5598 5604 5609 5612 5616 5620 5625 5629 5633 5637 5640 5643 5648 5651 5654 5657 5661 5664 5667 5671 5674 5678 5684 5688 5693 5699 5702 5704 5706 5708 5710 5714 5717 5720 5722 5724 5726 5729 5732 5734 5737 5739 5741 5744 5747 5749 5753 5756 5757 5760 5761 5762 5767 5769 5768 5770 5772 5773 5784 5792 5793 5794 5796 5796 5795 5795 5797 5799 5798 5798 5798 5797 5799 5799 5799
5539 5543 5547 5550 5554 5558 5562 5566 5572 5577 5582 5586 5591 5595 5599 5603 5607 5611 5616 5621 5625 5629 5633 5636 5639 5643 5647 5650 5653 5656 5660 5663 5666 5670 5675 5680 5684 5688 5692 5695 5699 5701 5702 5704 5708 5712 5714 5715 5718 5721 5724 5726 5728 5731 5734 5736 5738 5741 5745 5749 5751 5753 5756 5758 5758 5762 5762 5761 5766 5767 5768 5780 5789 5790 5791 5791 5790 5791 5791 5793 5795 5795 5794 5794 5793 5794 5794 5794
5533 5537 5540 5544 5548 5551 5555 5561 5568 5573 5578 5582 5586 5589 5594 5599 5604 5608 5613 5617 5621 5625 5629 5632 5636 5639 5643 5646 5648 5652 5656 5658 5661 5666 5671 5674 5678 5682 5684 5688 5692 5694 5697 5701 5704 5707 5708 5709 5711 5714 5715 5717 5720 5723 5726 5730 5734 5738 5743 5746 5747 5749 5751 5751 5753 5755 5755 5758 5763 5762 5765 5778 5787 5786 5786 5785 5784 5787 5788 5789 5790 5789 5789 5789 5789 5788 5788 5789
5528 5532 5535 5539 5542 5546 5552 5559 5565 5570 5573 5577 5581 5586 5591 5595 5599 5604 5609 5613 5616 5621 5624 5628 5632 5635 5638 5641 5644 5647 5650 5653 5657 5661 5665 5669 5673 5676 5678 5682 5685 5688 5693 5696 5699 5701 5701 5702 5705 5707 5708 5710 5714 5718 5724 5731 5735 5737 5739 5742 5743 5745 5746 5748 5749 5749 5751 5756 5759 5758 5764 5777 5781 5780 5780 5779 5779 5782 5784 5784 5784 5783 5783 5783 5782 5782 5782 5783
5523 5525 5529 5533 5537 5542 5549 5554 5559 5564 5569 5574 5578 5582 5586 5590 5595 5600 5604 5607 5611 5616 5619 5623 5627 5630 5633 5636 5639 5642 5645 5649 5652 5655 5660 5665 5668 5671 5674 5676 5680 5683 5686 5688 5691 5692 5693 5694 5698 5700 5703 5707 5713 5719 5725 5728 5729 5730 5734 5738 5739 5741 5742 5743 5742 5743 5749 5753 5753 5756 5764 5771 5774 5774 5774 5774 5774 5776 5778 5778 5777 5776 5776 5776 5775 5776 5777 5778
5518 5520 5524 5528 5533 5537 5543 5548 5553 5559 5565 5570 5573 5577 5582 5587 5590 5595 5599 5603 5607 5611 5615 5618 5622 5625 5628 5632 5635 5637 5641 5645 5647 5652 5657 5660 5663 5666 5668 5670 5673 5676 5679 5682 5683 5684 5685 5687 5691 5695 5698 5704 5710 5714 5716 5718 5720 5723 5727 5730 5731 5734 5735 5735 5736 5741 5747 5745 5745 5754 5761 5762 5766 5768 5768 5769 5769 5768 5769 5770 5769 5770 5770 5770 5772 5772 5772 5773
5514 5516 5520 5524 5529 5533 5538 5544 5549 5554 5559 5563 5567 5572 5577 5581 5586 5591 5596 5600 5603 5607 5610 5613 5617 5621 5625 5629 5631 5633 5636 5639 5642 5647 5652 5655 5658 5661 5663 5665 5667 5670 5673 5675 5676 5678 5679 5681 5687 5690 5694 5701 5705 5706 5708 5711 5713 5716 5719 5721 5724 5725 5726 5728 5731 5736 5738 5736 5740 5751 5754 5752 5757 5761 5761 5762 5762 5762 5762 5762 5762 5765 5766 5767 5768 5767 5767 5767
5510 5513 5515 5519 5524 5530 5536 5541 5545 5549 5553 5557 5562 5566 5571 5576 5582 5587 5592 5596 5599 5602 5605 5609 5614 5619 5621 5623 5626 5628 5630 5634 5638 5643 5648 5652 5654 5656 5659 5661 5662 5666 5668 5669 5671 5673 5674 5678 5683 5685 5689 5695 5697 5698 5702 5704 5706 5709 5712 5714 5717 5718 5720 5723 5726 5730 5731 5731 5738 5747 5746 5745 5752 5757 5758 5759 5758 5758 5758 5756 5757 5760 5762 5763 5763 5761 5761 5761
5506 5509 5512 5515 5520 5526 5531 5535 5539 5543 5548 5552 5556 5561 5567 5572 5577 5582 5586 5590 5593 5596 5601 5606 5611 5614 5616 5618 5621 5623 5627 5632 5636 5640 5644 5647 5649 5652 5655 5656 5659 5662 5663 5664 5666 5667 5670 5674 5678 5680 5683 5687 5690 5693 5696 5697 5698 5701 5704 5707 5709 5712 5714 5718 5722 5726 5727 5728 5736 5741 5738 5741 5750 5755 5756 5756 5755 5754 5753 5752 5753 5755 5756 5756 5755 5754 5753 5753
5502 5505 5509 5512 5515 5520 5525 5529 5533 5537 5542 5547 5553 5558 5563 5568 5573 5577 5580 5584 5588 5591 5596 5601 5605 5608 5610 5612 5616 5621 5626 5629 5631 5634 5638 5640 5643 5647 5648 5650 5654 5656 5657 5659 5660 5661 5665 5668 5671 5674 5676 5678 5684 5688 5688 5690 5692 5691 5693 5698 5703 5707 5711 5716 5720 5724 5724 5726 5733 5733 5731 5739 5749 5752 5751 5751 5750 5749 5749 5749 5749 5748 5748 5747 5745 5746 5747 5747
5497 5501 5505 5508 5511 5515 5519 5524 5528 5531 5536 5543 5550 5554 5558 5563 5567 5569 5573 5578 5583 5587 5591 5595 5599 5601 5604 5607 5613 5619 5622 5623 5625 5627 5629 5631 5635 5638 5639 5642 5645 5648 5650 5653 5654 5656 5658 5661 5665 5667 5667 5672 5678 5680 5681 5683 5679 5677 5686 5697 5702 5706 5710 5713 5716 5718 5719 5721 5724 5725 5729 5738 5743 5743 5744 5745 5744 5744 5744 5743 5742 5742 5742 5739 5737 5738 5739 5740